• Join FlightAware (Why Join?)
  • Login
  • US Flag 
06:12AM EST


 

Airport Tracker/Info


-or-


 

Live Flight TrackerFlight Track Log ✈ N830QS ✈ 23-Jun-2013 ✈ KSFO - KELP

Flight Track Log - Related Links

Times and Time Zones

All times are in EDT time to prevent confusion due to time zone crossing. See the N830QS flight status page for this flight to view local times or setup timezone preferences in your user account.

Time Position Orientation Groundspeed Altitude Reporting Facility
EDT Latitude Longitude Course Direction KTS MPH feet Rate Location/Type
05:20PM 37.6500 -122.4333 109° East 198 228 2,100  Level Northern Cal TRACON
05:21PM 37.6667 -122.5000 288° West 250 288 5,600 3,600 Climbing Northern Cal TRACON
05:22PM 37.6333 -122.5500 230° Southwest 265 305 9,300 3,350 Climbing Northern Cal TRACON
05:23PM 37.5667 -122.5000 149° Southeast 307 353 12,300 2,877 Climbing Northern Cal TRACON
05:24PM 37.4875 -122.3686 127° Southeast 326 375 16,300 2,694 Climbing Oakland Center
05:25PM 37.4297 -122.2761 128° Southeast 334 384 18,900 2,262 Climbing Oakland Center
05:26PM 37.2377 -121.0209 109° East  Level Estimated
05:26PM 37.3686 -122.1794 128° Southeast 346 398 20,900  Level Oakland Center
05:28PM 37.3031 -122.0744 128° Southeast 372 428 22,400 1,415 Climbing Oakland Center
05:29PM 37.2350 -121.9658 128° Southeast 389 448 23,800 1,415 Climbing Oakland Center
05:30PM 37.1658 -121.8550 128° Southeast 403 464 25,300 1,561 Climbing Oakland Center
05:31PM 37.0872 -121.7297 128° Southeast 416 479 27,000 1,659 Climbing Oakland Center
05:32PM 37.0044 -121.6033 129° Southeast 425 489 28,700 1,561 Climbing Oakland Center
05:33PM 36.9308 -121.4861 128° Southeast 430 495 30,200 1,463 Climbing Oakland Center
05:34PM 36.8561 -121.3664 128° Southeast 436 502 31,700 1,463 Climbing Oakland Center
05:35PM 36.7794 -121.2464 129° Southeast 438 504 33,200 1,463 Climbing Oakland Center
05:36PM 36.7033 -121.1281 129° Southeast 438 504 34,700 927 Climbing Oakland Center
05:37PM 36.6256 -121.0086 129° Southeast 443 510 35,100 732 Climbing Oakland Center
05:38PM 36.5464 -120.8828 128° Southeast 458 527 36,200 1,317 Climbing Oakland Center
05:39PM 36.4675 -120.7644 130° Southeast 449 517 37,800 1,512 Climbing Oakland Center
05:40PM 36.3925 -120.6481 129° Southeast 435 501 39,300 1,366 Climbing Oakland Center
05:41PM 36.3022 -120.5136 130° Southeast 424 488 40,600 829 Climbing Oakland Center
05:42PM 36.2272 -120.3983 129° Southeast 428 493 41,000 195 Climbing Oakland Center
05:43PM 36.1475 -120.2803 130° Southeast 442 509 41,000  Level Oakland Center
05:44PM 36.0661 -120.1561 129° Southeast 458 527 41,000  Level Oakland Center
05:45PM 35.9825 -120.0308 129° Southeast 469 540 41,000  Level Oakland Center
05:46PM 35.8969 -119.9033 130° Southeast 477 549 41,000  Level Oakland Center
05:47PM 35.8122 -119.7781 130° Southeast 474 545 41,000  Level Oakland Center
05:48PM 35.7286 -119.6508 129° Southeast 476 548 41,000  Level Oakland Center
05:49PM 35.6661 -119.5100 119° Southeast 468 539 41,000  Level Oakland Center
05:50PM 35.6053 -119.3692 118° Southeast 466 536 41,000  Level Oakland Center
05:51PM 35.5339 -119.2031 118° Southeast 460 529 41,000  Level Oakland Center
05:52PM 35.4753 -119.0661 118° Southeast 453 521 41,000  Level Oakland Center
05:53PM 35.4142 -118.9275 118° Southeast 459 528 41,000  Level Oakland Center
05:54PM 35.3564 -118.7917 118° Southeast 450 518 41,000  Level Oakland Center
05:55PM 35.2967 -118.6556 118° Southeast 453 521 41,000  Level Oakland Center
05:56PM 35.2356 -118.5192 119° Southeast 456 525 41,000  Level Oakland Center
05:57PM 35.1775 -118.3836 118° Southeast 452 520 41,000  Level Oakland Center
05:59PM 35.0856 -118.1792 119° Southeast 452 520 41,000  Level Los Angeles Center
06:00PM 35.0244 -118.0464 119° Southeast 452 520 41,000  Level Los Angeles Center
06:01PM 34.9639 -117.9122 119° Southeast 454 522 41,000  Level Los Angeles Center
06:02PM 34.8897 -117.7514 119° Southeast 464 534 41,000  Level Los Angeles Center
06:03PM 34.8314 -117.6172 118° Southeast 457 526 41,000  Level Los Angeles Center
06:04PM 34.7714 -117.4847 119° Southeast 456 525 41,000  Level Los Angeles Center
06:05PM 34.7097 -117.3500 119° Southeast 463 533 41,000  Level Los Angeles Center
06:06PM 34.6492 -117.2161 119° Southeast 459 528 41,000  Level Los Angeles Center
06:07PM 34.5744 -117.0544 119° Southeast 470 541 41,000  Level Los Angeles Center
06:08PM 34.5136 -116.9211 119° Southeast 458 527 41,000  Level Los Angeles Center
06:09PM 34.4483 -116.7883 121° Southeast 459 528 41,000  Level Los Angeles Center
06:10PM 34.3892 -116.6542 118° Southeast 458 527 41,000  Level Los Angeles Center
06:11PM 34.3281 -116.5206 119° Southeast 459 528 41,000  Level Los Angeles Center
06:12PM 34.2542 -116.3581 119° Southeast 457 526 41,000  Level Los Angeles Center
06:13PM 34.1917 -116.2269 120° Southeast 453 521 41,000  Level Los Angeles Center
06:14PM 34.1292 -116.0953 120° Southeast 454 522 41,000  Level Los Angeles Center
06:15PM 34.0708 -115.9442 115° Southeast 443 510 41,000  Level Los Angeles Center
06:16PM 34.0147 -115.8033 116° Southeast 463 533 41,000  Level Los Angeles Center
06:17PM 33.9603 -115.6653 115° Southeast 455 524 41,000  Level Los Angeles Center
06:18PM 33.9056 -115.5294 116° Southeast 452 520 41,000  Level Los Angeles Center
06:19PM 33.8500 -115.3933 116° Southeast 453 521 41,000  Level Los Angeles Center
06:20PM 33.7953 -115.2578 116° Southeast 450 518 41,000  Level Los Angeles Center
06:21PM 33.7303 -115.0931 115° Southeast 453 521 41,000  Level Los Angeles Center
06:23PM 33.6750 -114.9583 116° Southeast 451 519 41,000  Level Los Angeles Center
06:24PM 33.6208 -114.8211 115° Southeast 453 521 41,000  Level Los Angeles Center
06:25PM 33.5819 -114.6750 108° East 464 534 41,000  Level Los Angeles Center
06:26PM 33.5583 -114.5203 100° East 470 541 41,000  Level Los Angeles Center
06:27PM 33.5333 -114.3669 101° East 469 540 41,000  Level Los Angeles Center
06:28PM 33.5039 -114.1825 101° East 471 542 41,000  Level Los Angeles Center
06:29PM 33.4794 -114.0275 101° East 474 545 41,000  Level Los Angeles Center
06:30PM 33.4550 -113.8733 101° East 470 541 41,000  Level Los Angeles Center
06:31PM 33.4300 -113.7169 101° East 476 548 41,000  Level Los Angeles Center
06:32PM 33.4056 -113.5631 101° East 473 544 41,000  Level Los Angeles Center
06:33PM 33.3806 -113.4072 101° East 476 548 41,000  Level Los Angeles Center
06:34PM 33.3514 -113.2267 101° East 483 556 41,000  Level Los Angeles Center
06:35PM 33.3200 -113.0408 101° East 475 547 41,000  Level Albuquerque Center
06:36PM 33.2933 -112.8856 102° East 475 547 41,000  Level Albuquerque Center
06:37PM 33.2667 -112.7300 102° East 476 548 41,000  Level Albuquerque Center
06:38PM 33.2392 -112.5703 102° East 476 548 41,000  Level Albuquerque Center
06:39PM 33.2119 -112.4164 102° East 477 549 41,000  Level Albuquerque Center
06:40PM 33.1853 -112.2628 102° East 478 550 41,000  Level Albuquerque Center
06:41PM 33.1533 -112.0747 101° East 482 555 41,000  Level Albuquerque Center
06:42PM 33.1250 -111.9236 103° East 477 549 41,000  Level Albuquerque Center
06:43PM 33.0986 -111.7692 101° East 478 550 41,000  Level Albuquerque Center
06:44PM 33.0711 -111.6153 102° East 478 550 41,000  Level Albuquerque Center
06:45PM 33.0439 -111.4608 102° East 479 551 41,000  Level Albuquerque Center
06:46PM 33.0147 -111.3072 103° East 478 550 41,000  Level Albuquerque Center
06:47PM 32.9811 -111.1225 102° East 477 549 41,000  Level Albuquerque Center
06:49PM 32.9531 -110.9694 102° East 477 549 41,000  Level Albuquerque Center
06:50PM 32.9244 -110.8156 102° East 477 549 41,000  Level Albuquerque Center
06:51PM 32.8944 -110.6544 102° East 478 550 41,000  Level Albuquerque Center
06:52PM 32.8653 -110.5025 103° East 478 550 41,000  Level Albuquerque Center
06:53PM 32.8356 -110.3514 103° East 475 547 41,000  Level Albuquerque Center
06:54PM 32.8056 -110.1989 103° East 477 549 41,000  Level Albuquerque Center
06:55PM 32.7703 -110.0167 103° East 477 549 41,000  Level Albuquerque Center
06:56PM 32.7386 -109.8647 104° East 480 552 41,000  Level Albuquerque Center
06:57PM 32.7097 -109.7133 103° East 477 549 41,000  Level Albuquerque Center
06:58PM 32.6794 -109.5628 103° East 476 548 41,000  Level Albuquerque Center
06:59PM 32.6497 -109.4119 103° East 478 550 41,000  Level Albuquerque Center
07:00PM 32.6133 -109.2336 104° East 474 545 41,000  Level Albuquerque Center
07:01PM 32.5825 -109.0817 104° East 478 550 41,000 48 Level Albuquerque Center
07:02PM 32.5517 -108.9319 104° East 477 549 41,100 -341 Climbing Albuquerque Center
07:03PM 32.5222 -108.7828 103° East 475 547 40,300 -1,610 Descending Albuquerque Center
07:04PM 32.4911 -108.6325 104° East 476 548 37,800 -2,661 Descending Albuquerque Center
07:05PM 32.4533 -108.4519 104° East 478 550 34,800 -2,341 Descending Albuquerque Center
07:06PM 32.4256 -108.3197 104° East 475 547 33,000 -878 Descending Albuquerque Center
07:07PM 32.3881 -108.1392 104° East 472 543 33,000  Level Albuquerque Center
07:08PM 32.3550 -107.9858 104° East 480 552 33,000 -49 Level Albuquerque Center
07:09PM 32.3231 -107.8333 104° East 481 554 32,900 -1,463 Descending Albuquerque Center
07:10PM 32.2911 -107.6853 104° East 472 543 30,000 -3,290 Descending Albuquerque Center
07:11PM 32.2608 -107.5442 104° East 455 524 26,100 -3,366 Descending Albuquerque Center
07:12PM 32.2253 -107.4000 106° East 431 496 23,100 -2,537 Descending Albuquerque Center
07:13PM 32.1931 -107.2678 106° East 424 488 20,900 -2,173 Descending Albuquerque Center
07:14PM 32.1603 -107.1208 105° East 385 443 18,500 -2,211 Descending Albuquerque Center
07:15PM 32.1447 -107.0569 106° East 380 437 17,400 -1,912 Descending Albuquerque Center
07:16PM 32.1169 -106.9461 106° East 343 395 15,600 -1,537 Descending Albuquerque Center
07:17PM 32.0953 -106.8486 105° East 291 335 14,300 -1,267 Descending Albuquerque Center
07:17PM 32.0869 -106.8156 107° East 304 350 13,700 -1,377 Descending Albuquerque Center
07:18PM 32.0697 -106.7522 108° East 306 352 12,900 -1,258 Descending Albuquerque Center
07:18PM 32.0636 -106.7200 103° East 302 348 12,400 -1,377 Descending Albuquerque Center
07:19PM 32.0469 -106.6600 108° East 297 342 11,500 -1,672 Descending Albuquerque Center
07:19PM 32.0356 -106.6086 105° East 299 344 10,700 -1,290 Descending Albuquerque Center
07:20PM 32.0144 -106.5247 107° East 272 313 9,500 -823 Descending Albuquerque Center
07:21PM 31.9936 -106.4428 107° East 262 302 9,000 -829 Descending Albuquerque Center
07:22PM 31.9700 -106.3689 111° Southeast 243 280 7,800 -1,366 Descending Albuquerque Center
07:23PM 31.9344 -106.3153 128° Southeast 199 229 6,200 -1,073 Descending Albuquerque Center
07:24PM 31.8764 -106.3064 173° South 189 217 5,600 -829 Descending Albuquerque Center
07:26PM 31.8417 -106.3433 222° Southwest 171 197 4,500 -829 Descending Albuquerque Center
07:27PM 31.8172 -106.3767 229° Southwest 133 153 3,900 -590 Descending Albuquerque Center
07:29PM 31.8072 -106.3764 90° East  Level Estimated
07:36PM 31.8072 -106.3764 90° East  Level Estimated
07:37PM 31.8072 -106.3764 90° East  Level Estimated
07:38PM 31.8072 -106.3764 90° East  Level Estimated